K5GHS-1 Weather Reports


Display with metric or nautical units.
time (UTC)temp
F
wind
direction
speed
MPH
gust
MPH
rain 1hr
in
rain 24hr
in
rain mn
in
humidity
%
barometer
mb
20260902150324 89 79 1.0 1.0 0.00 0.00 0.00 64 1015.2
20260902145823 89 83 0.0 1.0 0.00 0.00 0.00 66 1014.8
20260902145318 88 71 1.0 2.0 0.00 0.00 0.00 67 1014.9
20260902144814 88 71 0.0 0.0 0.00 0.00 0.00 66 1014.9
20260902144310 88 101 1.0 2.0 0.00 0.00 0.00 66 1014.8
20260902143804 87 27 1.0 3.0 0.00 0.00 0.00 68 1014.9
20260902143259 87 79 0.0 2.0 0.00 0.00 0.00 68 1014.8
20260902142756 86 72 1.0 2.0 0.00 0.00 0.00 68 1014.8
20260902142251 86 49 3.0 3.0 0.00 0.00 0.00 69 1014.8
20260902141750 86 93 1.0 2.0 0.00 0.00 0.00 69 1015.0
20260902141246 85 85 0.0 2.0 0.00 0.00 0.00 71 1015.1
20260902140741 85 73 1.0 3.0 0.00 0.00 0.00 70 1014.9
20260902140236 84 51 2.0 2.0 0.00 0.00 0.00 71 1014.8
20260902135735 84 64 3.0 5.0 0.00 0.00 0.00 71 1015.1
20260902135231 84 111 2.0 3.0 0.00 0.00 0.00 73 1014.8
20260902134730 83 70 1.0 3.0 0.00 0.00 0.00 73 1014.8
20260902134226 82 66 1.0 2.0 0.00 0.00 0.00 75 1014.8
20260902133721 82 74 1.0 2.0 0.00 0.00 0.00 76 1014.9
20260902133220 81 86 1.0 3.0 0.00 0.00 0.00 78 1015.0
20260902132715 81 70 0.0 1.0 0.00 0.00 0.00 78 1014.9
20260902132211 80 66 3.0 3.0 0.00 0.00 0.00 79 1014.9
20260902131706 80 71 2.0 2.0 0.00 0.00 0.00 79 1014.8
20260902131203 80 108 2.0 2.0 0.00 0.00 0.00 79 1014.6
20260902130657 80 86 0.0 2.0 0.00 0.00 0.00 79 1014.7
20260902130153 80 77 0.0 1.0 0.00 0.00 0.00 79 1014.7
20260902125643 80 75 1.0 1.0 0.00 0.00 0.00 80 1014.6
20260902125138 79 89 0.0 3.0 0.00 0.00 0.00 80 1014.5
20260902124635 79 77 2.0 2.0 0.00 0.00 0.00 80 1014.6
20260902124134 79 82 1.0 1.0 0.00 0.00 0.00 81 1014.5
20260902123631 79 77 1.0 3.0 0.00 0.00 0.00 81 1014.5
20260902123130 78 83 1.0 1.0 0.00 0.00 0.00 82 1014.4
20260902122625 78 70 0.0 1.0 0.00 0.00 0.00 82 1014.4
20260902122121 78 77 0.0 1.0 0.00 0.00 0.00 82 1014.4
20260902121621 78 81 1.0 1.0 0.00 0.00 0.00 83 1014.3
20260902121115 79 74 0.0 1.0 0.00 0.00 0.00 82 1014.5
20260902120612 79 80 0.0 1.0 0.00 0.00 0.00 82 1014.2
20260902120108 79 85 1.0 2.0 0.00 0.00 0.00 83 1014.3
20260902115603 79 88 0.0 2.0 0.00 0.00 0.00 82 1014.1
20260902115059 79 75 1.0 1.0 0.00 0.00 0.00 82 1014.4
20260902114555 79 70 1.0 2.0 0.00 0.00 0.00 81 1014.3
20260902114054 79 73 0.0 0.0 0.00 0.00 0.00 81 1014.3
20260902113550 79 76 1.0 1.0 0.00 0.00 0.00 80 1014.1
20260902113045 79 69 0.0 1.0 0.00 0.00 0.00 80 1014.3
20260902112540 79 74 0.0 0.0 0.00 0.00 0.00 79 1014.1
20260902112037 79 71 0.0 0.0 0.00 0.00 0.00 78 1014.1
20260902111533 79 70 0.0 0.0 0.00 0.00 0.00 77 1014.2
20260902111028 79 69 0.0 0.0 0.00 0.00 0.00 77 1014.2
20260902110524 79 69 0.0 1.0 0.00 0.00 0.00 77 1014.4
20260902110020 79 70 1.0 1.0 0.00 0.00 0.00 78 1014.3
20260902105519 79 73 0.0 0.0 0.00 0.00 0.00 77 1014.5
20260902105014 80 71 0.0 0.0 0.00 0.00 0.00 76 1014.4
20260902104510 80 69 0.0 0.0 0.00 0.00 0.00 76 1014.3
20260902104004 80 68 0.0 1.0 0.00 0.00 0.00 76 1014.2
20260902103500 80 72 0.0 0.0 0.00 0.00 0.00 75 1014.1
20260902102955 80 72 0.0 0.0 0.00 0.00 0.00 75 1014.3
20260902102451 80 80 0.0 0.0 0.00 0.00 0.00 74 1014.4
20260902101948 80 74 0.0 0.0 0.00 0.00 0.00 74 1014.2
20260902101448 80 73 0.0 0.0 0.00 0.00 0.00 74 1014.0
20260902100946 81 72 0.0 0.0 0.00 0.00 0.00 74 1014.2
20260902100442 81 74 0.0 0.0 0.00 0.00 0.00 74 1014.2
20260902095942 81 76 0.0 0.0 0.00 0.00 0.00 74 1014.3
20260902095436 80 81 0.0 0.0 0.00 0.00 0.00 75 1014.1
20260902094935 80 71 0.0 0.0 0.00 0.00 0.00 75 1014.1
20260902094432 80 71 0.0 0.0 0.00 0.00 0.00 75 1014.1
20260902093926 80 70 0.0 0.0 0.00 0.00 0.00 74 1014.1
20260902093422 81 70 0.0 0.0 0.00 0.00 0.00 74 1014.1
20260902092920 81 78 0.0 0.0 0.00 0.00 0.00 74 1014.1
20260902092416 81 75 0.0 0.0 0.00 0.00 0.00 74 1013.9
20260902091911 81 73 0.0 0.0 0.00 0.00 0.00 74 1014.0
20260902091406 81 74 0.0 0.0 0.00 0.00 0.00 74 1013.9
20260902090903 81 71 0.0 0.0 0.00 0.00 0.00 74 1014.2
20260902090402 81 71 0.0 0.0 0.00 0.00 0.00 73 1014.1
20260902085901 81 71 0.0 0.0 0.00 0.00 0.00 73 1014.0
20260902085356 82 74 0.0 0.0 0.00 0.00 0.00 72 1013.9
20260902084852 82 73 0.0 0.0 0.00 0.00 0.00 72 1014.0
20260902084348 82 76 0.0 0.0 0.00 0.00 0.00 72 1014.0
20260902083843 82 72 0.0 0.0 0.00 0.00 0.00 71 1014.0
20260902083338 82 75 0.0 0.0 0.00 0.00 0.00 71 1013.9
20260902082833 82 73 0.0 0.0 0.00 0.00 0.00 71 1013.9
20260902082329 83 74 0.0 0.0 0.00 0.00 0.00 70 1014.0
20260902081825 83 74 0.0 0.0 0.00 0.00 0.00 70 1014.0
20260902081320 83 95 0.0 0.0 0.00 0.00 0.00 70 1014.0
20260902080814 83 76 0.0 1.0 0.00 0.00 0.00 70 1014.0
20260902080312 83 72 0.0 0.0 0.00 0.00 0.00 69 1014.1
20260902075811 83 77 0.0 1.0 0.00 0.00 0.00 69 1013.9
20260902075307 83 80 2.0 2.0 0.00 0.00 0.00 69 1013.9
20260902074802 84 77 0.0 2.0 0.00 0.00 0.00 68 1014.0
20260902074258 84 84 0.0 1.0 0.00 0.00 0.00 68 1014.1
20260902073753 84 77 0.0 1.0 0.00 0.00 0.00 68 1014.0
20260902073249 84 84 0.0 0.0 0.00 0.00 0.00 68 1014.1
20260902072744 84 79 0.0 1.0 0.00 0.00 0.00 68 1014.1
20260902072240 84 74 0.0 0.0 0.00 0.00 0.00 68 1014.1
20260902071736 84 77 0.0 0.0 0.00 0.00 0.00 68 1014.0
20260902071231 84 118 1.0 1.0 0.00 0.00 0.00 68 1014.1
20260902070728 84 76 0.0 0.0 0.00 0.00 0.00 68 1013.9
20260902070227 84 75 0.0 0.0 0.00 0.00 0.00 68 1014.0
20260902065726 84 77 0.0 1.0 0.00 0.00 0.00 68 1014.2
20260902065221 84 77 0.0 2.0 0.00 0.00 0.00 68 1014.0
20260902064717 84 82 0.0 1.0 0.00 0.00 0.00 68 1014.1
20260902064212 85 84 1.0 1.0 0.00 0.00 0.00 68 1013.9
20260902063708 85 81 1.0 2.0 0.00 0.00 0.00 68 1014.0
20260902063207 85 81 0.0 1.0 0.00 0.00 0.00 67 1013.8
20260902062702 85 78 0.0 2.0 0.00 0.00 0.00 67 1013.9
20260902062157 85 76 0.0 0.0 0.00 0.00 0.00 67 1013.9
20260902061655 85 89 0.0 0.0 0.00 0.00 0.00 67 1013.8
20260902061151 85 79 2.0 3.0 0.00 0.00 0.00 67 1013.9
20260902060648 86 81 0.0 1.0 0.00 0.00 0.00 66 1013.9
20260902060144 86 102 0.0 2.0 0.00 0.00 0.00 66 1013.8
20260902055639 86 105 1.0 1.0 0.00 0.00 0.00 66 1013.9
20260902055135 86 110 1.0 2.0 0.00 0.00 0.00 65 1014.1
20260902054630 86 90 1.0 1.0 0.00 0.00 0.00 65 1014.0
20260902054126 86 85 0.0 1.0 0.00 0.00 0.00 64 1013.8
20260902053620 87 109 0.0 2.0 0.00 0.00 0.00 64 1014.0
20260902053115 87 77 0.0 1.0 0.00 0.00 0.00 64 1013.9
20260902052609 87 87 1.0 2.0 0.00 0.00 0.00 63 1013.9
20260902052105 87 74 0.0 1.0 0.00 0.00 0.00 63 1013.9
20260902051604 87 124 2.0 3.0 0.00 0.00 0.00 63 1014.1
20260902051103 87 95 1.0 5.0 0.00 0.00 0.00 63 1013.7
20260902050558 87 75 0.0 1.0 0.00 0.00 0.00 62 1013.6
20260902050053 87 104 1.0 5.0 0.00 0.00 0.00 61 1013.5
20260902045548 88 83 1.0 1.0 0.00 0.00 0.00 61 1013.6
20260902045044 88 92 0.0 1.0 0.00 0.00 0.00 61 1013.9
20260902044539 88 110 1.0 2.0 0.00 0.00 0.00 61 1013.9
20260902044035 88 74 0.0 0.0 0.00 0.00 0.00 60 1013.6
20260902043530 88 111 1.0 5.0 0.00 0.00 0.00 60 1013.7
20260902043025 89 86 1.0 5.0 0.00 0.00 0.00 58 1013.6
20260902042524 88 52 2.0 6.0 0.00 0.00 0.00 58 1013.7
20260902042019 89 76 0.0 6.0 0.00 0.00 0.00 58 1013.4
20260902041514 89 71 0.0 3.0 0.00 0.00 0.00 58 1013.8
20260902041008 89 77 1.0 5.0 0.00 0.00 0.00 57 1013.7
20260902040503 89 78 1.0 3.0 0.00 0.00 0.00 57 1013.4
20260902040002 89 116 3.0 6.0 0.00 0.00 0.00 58 1013.2
20260902035456 89 71 1.0 2.0 0.00 0.00 0.00 59 1013.4
20260902034950 89 78 0.0 2.0 0.00 0.00 0.00 58 1013.4
20260902034445 89 75 0.0 0.0 0.00 0.00 0.00 58 1013.2
20260902033944 89 75 0.0 0.0 0.00 0.00 0.00 57 1013.4
20260902033438 89 85 0.0 0.0 0.00 0.00 0.00 57 1013.1
20260902032937 89 72 0.0 0.0 0.00 0.00 0.00 56 1013.1
20260902032432 89 75 0.0 2.0 0.00 0.00 0.00 56 1013.4
20260902031927 89 74 0.0 0.0 0.00 0.00 0.00 56 1013.2
20260902031422 90 70 0.0 0.0 0.00 0.00 0.00 56 1013.1
20260902030918 89 79 0.0 1.0 0.00 0.00 0.00 56 1013.0
20260902030413 90 78 0.0 0.0 0.00 0.00 0.00 56 1013.1
20260902025911 90 76 0.0 0.0 0.00 0.00 0.00 56 1012.8
20260902025407 90 73 0.0 1.0 0.00 0.00 0.00 56 1013.0
20260902024902 90 70 0.0 1.0 0.00 0.00 0.00 55 1013.1
20260902024357 90 76 0.0 1.0 0.00 0.00 0.00 55 1012.6
20260902023853 90 76 0.0 1.0 0.00 0.00 0.00 55 1012.7
20260902023348 90 76 0.0 0.0 0.00 0.00 0.00 55 1012.7
20260902022847 91 72 0.0 0.0 0.00 0.00 0.00 55 1012.6
20260902022342 91 68 0.0 1.0 0.00 0.00 0.00 55 1012.4
20260902021838 91 71 0.0 1.0 0.00 0.00 0.00 54 1012.3
20260902021333 91 75 0.0 0.0 0.00 0.00 0.00 53 1012.3
20260902020828 92 75 0.0 3.0 0.00 0.00 0.00 52 1012.2
20260902020325 92 54 1.0 5.0 0.00 0.00 0.00 52 1012.2
20260902015820 92 47 0.0 1.0 0.00 0.00 0.00 50 1012.3
20260902015316 92 87 0.0 1.0 0.00 0.00 0.00 49 1012.1
20260902014811 92 70 0.0 1.0 0.00 0.00 0.00 49 1011.8
20260902014308 92 76 0.0 0.0 0.00 0.00 0.00 49 1011.8
20260902013806 92 76 1.0 1.0 0.00 0.00 0.00 50 1011.6
20260902013302 92 74 0.0 0.0 0.00 0.00 0.00 49 1011.4
20260902012757 92 77 0.0 0.0 0.00 0.00 0.00 49 1011.4
20260902012253 92 76 0.0 1.0 0.00 0.00 0.00 49 1011.4
20260902011749 92 77 0.0 0.0 0.00 0.00 0.00 49 1011.6
20260902011248 93 74 0.0 0.0 0.00 0.00 0.00 48 1011.6
20260902010741 93 75 0.0 0.0 0.00 0.00 0.00 48 1011.4
20260902010237 93 74 0.0 0.0 0.00 0.00 0.00 48 1011.4
20260902005736 94 74 0.0 0.0 0.00 0.00 0.00 47 1011.3
20260902005231 94 76 0.0 1.0 0.00 0.00 0.00 46 1011.2
20260902004725 94 72 0.0 0.0 0.00 0.00 0.00 46 1011.2
20260902004220 94 81 0.0 1.0 0.00 0.00 0.00 45 1011.4
20260902003715 95 83 0.0 2.0 0.00 0.00 0.00 45 1011.5
20260902003211 95 84 0.0 0.0 0.00 0.00 0.00 45 1011.6
20260902002706 95 75 0.0 1.0 0.00 0.00 0.00 44 1011.6
20260902002200 95 76 0.0 1.0 0.00 0.00 0.00 44 1011.5
20260902001655 96 56 2.0 3.0 0.00 0.00 0.00 43 1011.7
20260902001150 96 77 0.0 1.0 0.00 0.00 0.00 43 1011.6
20260902000645 96 74 0.0 5.0 0.00 0.00 0.00 43 1011.8
20260902000140 96 68 1.0 2.0 0.00 0.00 0.00 43 1011.8
20260901235640 96 72 0.0 5.0 0.00 0.00 0.00 44 1011.8
20260901235135 96 80 1.0 1.0 0.00 0.00 0.00 44 1011.7
20260901234634 96 71 0.0 2.0 0.00 0.00 0.00 43 1011.7
20260901234130 96 74 0.0 2.0 0.00 0.00 0.00 43 1011.7
20260901233624 96 73 1.0 2.0 0.00 0.00 0.00 43 1011.8
20260901233121 97 92 0.0 1.0 0.00 0.00 0.00 42 1011.8
20260901232620 97 105 1.0 3.0 0.00 0.00 0.00 43 1011.7
20260901232115 97 86 1.0 2.0 0.00 0.00 0.00 42 1012.0
20260901231613 98 121 1.0 1.0 0.00 0.00 0.00 42 1011.9
20260901231108 98 127 2.0 3.0 0.00 0.00 0.00 41 1011.9
20260901230604 99 127 1.0 7.0 0.00 0.00 0.00 40 1011.8
20260901230103 100 80 1.0 5.0 0.00 0.00 0.00 40 1011.9
20260901225559 100 96 0.0 3.0 0.00 0.00 0.00 40 1011.9
20260901225058 100 36 2.0 3.0 0.00 0.00 0.00 39 1011.8
20260901224554 100 70 3.0 3.0 0.00 0.00 0.00 39 1012.0
20260901224050 101 96 0.0 1.0 0.00 0.00 0.00 38 1011.9
20260901223546 99 95 1.0 2.0 0.00 0.00 0.00 39 1011.7
20260901223041 101 94 0.0 1.0 0.00 0.00 0.00 38 1011.7
20260901222537 100 61 3.0 5.0 0.00 0.00 0.00 38 1011.8
20260901222033 100 118 2.0 6.0 0.00 0.00 0.00 39 1011.9
20260901221529 101 96 2.0 3.0 0.00 0.00 0.00 38 1011.8
20260901221024 101 75 0.0 2.0 0.00 0.00 0.00 38 1012.0
20260901220523 101 74 1.0 2.0 0.00 0.00 0.00 38 1012.0
20260901220022 101 62 1.0 3.0 0.00 0.00 0.00 38 1012.0
20260901215521 101 64 0.0 0.0 0.00 0.00 0.00 38 1011.8
20260901215021 101 80 1.0 3.0 0.00 0.00 0.00 38 1012.1
20260901214519 101 84 0.0 2.0 0.00 0.00 0.00 39 1012.1
20260901214014 101 54 3.0 5.0 0.00 0.00 0.00 38 1012.1
20260901213508 100 68 1.0 5.0 0.00 0.00 0.00 39 1012.3
20260901213002 100 64 2.0 2.0 0.00 0.00 0.00 39 1012.4
20260901212457 100 105 1.0 5.0 0.00 0.00 0.00 40 1012.3
20260901211954 100 106 1.0 3.0 0.00 0.00 0.00 40 1012.5
20260901211449 101 56 3.0 3.0 0.00 0.00 0.00 39 1012.5
20260901210944 100 75 1.0 2.0 0.00 0.00 0.00 40 1012.5
20260901210440 98 106 2.0 3.0 0.00 0.00 0.00 42 1012.5
20260901205936 100 78 2.0 6.0 0.00 0.00 0.00 42 1012.5
20260901205430 100 84 1.0 6.0 0.00 0.00 0.00 40 1012.8
20260901204925 99 9 0.0 2.0 0.00 0.00 0.00 42 1012.7
20260901204422 100 132 3.0 6.0 0.00 0.00 0.00 41 1012.7
20260901203922 100 89 0.0 5.0 0.00 0.00 0.00 41 1013.0
20260901203416 100 64 3.0 5.0 0.00 0.00 0.00 41 1012.8
20260901202912 99 104 0.0 3.0 0.00 0.00 0.00 41 1013.1
20260901202406 99 91 4.0 5.0 0.00 0.00 0.00 41 1013.0
20260901201902 99 84 3.0 6.0 0.00 0.00 0.00 42 1013.0
20260901201402 98 60 3.0 5.0 0.00 0.00 0.00 42 1013.3
20260901200856 99 81 2.0 5.0 0.00 0.00 0.00 42 1013.3
20260901200351 100 79 2.0 3.0 0.00 0.00 0.00 41 1013.4
20260901195850 100 110 1.0 2.0 0.00 0.00 0.00 41 1013.6
20260901195343 100 62 0.0 5.0 0.00 0.00 0.00 41 1013.3
20260901194838 99 79 1.0 3.0 0.00 0.00 0.00 42 1013.5
20260901194333 100 65 0.0 0.0 0.00 0.00 0.00 40 1013.5
20260901193830 99 68 0.0 1.0 0.00 0.00 0.00 42 1013.6
20260901193328 99 115 1.0 6.0 0.00 0.00 0.00 43 1013.7
20260901192822 99 102 2.0 5.0 0.00 0.00 0.00 42 1013.7
20260901192318 99 77 1.0 2.0 0.00 0.00 0.00 42 1013.8
20260901191815 99 90 2.0 7.0 0.00 0.00 0.00 42 1013.9
20260901191310 100 73 0.0 3.0 0.00 0.00 0.00 42 1013.8
20260901190806 98 55 1.0 2.0 0.00 0.00 0.00 43 1014.2
20260901190306 98 34 3.0 3.0 0.00 0.00 0.00 42 1013.9
20260901185804 99 32 4.0 6.0 0.00 0.00 0.00 42 1014.2
20260901185305 98 69 1.0 3.0 0.00 0.00 0.00 43 1014.3
20260901184758 98 113 3.0 6.0 0.00 0.00 0.00 42 1014.4
20260901184254 97 225 1.0 2.0 0.00 0.00 0.00 45 1014.3
20260901183750 97 80 1.0 5.0 0.00 0.00 0.00 45 1014.8
20260901183249 97 63 1.0 3.0 0.00 0.00 0.00 44 1014.7
20260901182745 96 114 2.0 5.0 0.00 0.00 0.00 46 1014.7
20260901182244 96 80 0.0 3.0 0.00 0.00 0.00 47 1014.8
20260901181739 97 63 1.0 5.0 0.00 0.00 0.00 47 1014.8
20260901181234 98 358 2.0 5.0 0.00 0.00 0.00 46 1014.9
20260901180733 97 84 2.0 5.0 0.00 0.00 0.00 47 1014.9
20260901180232 96 111 1.0 2.0 0.00 0.00 0.00 48 1015.0
20260901175731 95 67 0.0 1.0 0.00 0.00 0.00 50 1015.1
20260901175226 95 54 4.0 5.0 0.00 0.00 0.00 50 1015.4
20260901174721 94 80 0.0 1.0 0.00 0.00 0.00 50 1015.4
20260901174217 95 70 0.0 1.0 0.00 0.00 0.00 49 1015.5
20260901173713 96 75 0.0 1.0 0.00 0.00 0.00 48 1015.4
20260901173208 98 78 0.0 3.0 0.00 0.00 0.00 46 1015.4
20260901172704 98 76 0.0 1.0 0.00 0.00 0.00 46 1015.7
20260901172203 98 115 2.0 5.0 0.00 0.00 0.00 45 1015.6
20260901171701 98 76 0.0 1.0 0.00 0.00 0.00 46 1015.7
20260901171155 97 77 0.0 2.0 0.00 0.00 0.00 47 1015.7
20260901170654 96 150 1.0 2.0 0.00 0.00 0.00 48 1016.0
20260901170149 96 45 1.0 3.0 0.00 0.00 0.00 49 1015.8
20260901165648 96 51 1.0 1.0 0.00 0.00 0.00 48 1016.0
20260901165143 95 77 0.0 2.0 0.00 0.00 0.00 49 1016.2
20260901164639 95 81 0.0 1.0 0.00 0.00 0.00 49 1016.0
20260901164134 96 99 0.0 2.0 0.00 0.00 0.00 48 1016.3
20260901163630 95 93 2.0 3.0 0.00 0.00 0.00 49 1016.1
20260901163128 95 35 3.0 3.0 0.00 0.00 0.00 49 1016.0
20260901162624 95 100 1.0 1.0 0.00 0.00 0.00 49 1016.3
20260901162123 95 155 1.0 2.0 0.00 0.00 0.00 50 1015.8
20260901161623 95 99 1.0 1.0 0.00 0.00 0.00 49 1016.0
20260901161122 95 119 0.0 1.0 0.00 0.00 0.00 50 1016.2
20260901160619 95 83 0.0 1.0 0.00 0.00 0.00 50 1016.2
20260901160114 95 85 0.0 2.0 0.00 0.00 0.00 50 1016.0
20260901155613 95 74 0.0 3.0 0.00 0.00 0.00 50 1016.2
20260901155109 94 124 1.0 1.0 0.00 0.00 0.00 50 1016.3
20260901154608 94 86 0.0 1.0 0.00 0.00 0.00 52 1016.1
20260901154103 94 70 0.0 1.0 0.00 0.00 0.00 51 1016.0
20260901153558 94 89 0.0 1.0 0.00 0.00 0.00 52 1016.0
20260901153051 94 116 0.0 1.0 0.00 0.00 0.00 51 1016.1
20260901152547 93 70 0.0 1.0 0.00 0.00 0.00 54 1016.0
20260901152045 93 108 1.0 2.0 0.00 0.00 0.00 54 1016.2
20260901151541 93 81 0.0 0.0 0.00 0.00 0.00 53 1016.0
20260901151035 93 83 0.0 2.0 0.00 0.00 0.00 54 1016.0
20260901150533 92 72 0.0 2.0 0.00 0.00 0.00 55 1016.1